NOAA 16 DEB, 42401

Orbit data source: Space-Track

NOAA 16 DEB, 42401 is space debris in SSO originally from a launch on Thu, 21 Sep 2000 UTC launched from the Air Force Western Test Range (AFWTR). Debris objects in space refer to the collection of defunct objects orbiting the Earth. Examples of debris include non-operational satellites, rocket bodies, and fragments generated from explosions, collisions, or faulty payload assembly.

Loading next visibility...
NOAA 16 DEB details
Identifier
42401, 2000-055SV
Orbit
SSO
Last TLE update15 hours ago
Origin
Flag of USNOAA (US)
ManufacturerUnknown
MissionSpacecraft
Bus & MotorUnknown
MassUnknown
Launch date (UTC)
2000-09-21 (24 years ago)
Launch vehicleUnknown
Launch site
Air Force Western Test Range (AFWTR)
Object type
Payload
Rocket body
Debris
Shape & HBRUnknown
Radar Cross SectionSmall (<0.1 m²)

Expand to show TLE details & history

TLE from 15 hours ago
0 NOAA 16 DEB
1 42401U 00055SV  24338.78833090  .00019258  00000-0  52440-2 0  9991
2 42401  98.9819 165.5409 0054055 297.9176  61.6547 14.46588558456993
Epoch: 2024-12-03T18:55Z
Definitive object data (Epoch: 2024-12-03T18:55:11.789Z)
Latitude-0.00005°
Longitude168.64898°
Altitude721.652 km
Speed7.504 km/s
True Right ascension11h 02m 09s
True Declination0° 00' 00"
Sunlit
Object was in daylight at TLE epoch
Visualization TLE readout
Latitude-32.34523°
Longitude175.01566°
Altitude715.986 km
Speed7.514 km/s
Apparent Right ascension14h 50m 44s
Apparent Declination-55° 44' 54"
Sunlit
Object is in daylight
Visualization observer readout
Local Sidereal Time07:36:57
Azimuth134.227° SE
Elevation-41.833°
Doppler factor1
Orbital elements
Apogee altitude772.393 km
Perigee altitude695.505 km
Semi-major axis7,112.086 km
Eccentricity0.0054055
Inclination98.9819°
RAAN165.5409°
Arg. of periapsis297.9176°
True anomaly62.2016°
Mean anomaly61.6547°
Eccentric anomaly61.92798°
Mean motion3.61866 °/min
BSTAR0.005244
Orbital period99.48 mins
Loading maneuver chart data...
Loading historical data...
Loading historical data...
Loading historical data...
Loading historical data...
Loading historical data...
Loading historical data...
Loading historical data...

NOAA 16 DEB Visibility forecast

Observer location: undefined°, undefined

Span
Click to sort rows by Start time (UTC) header in descending order
Start Az.
Max El. time (UTC)
Max El. Az.
Max El.
End time (UTC)
End Az.
7 mins2024-12-04 11:39:37.938Z118.844° SE2024-12-04 11:43:37.938Z60.624° ENE23.611°2024-12-04 11:46:37.938Z17.051° NNE
7 mins2024-12-04 13:18:37.938Z207.716° SW2024-12-04 13:21:37.938Z264.645° W29.769°2024-12-04 13:25:37.938Z325.268° NNW
8 mins2024-12-05 01:23:37.938Z24.168° NE2024-12-05 01:26:37.938Z78.589° E42.119°2024-12-05 01:31:37.938Z184.541° SSW
|